Regional Weather Roundup
Issued by NWS

Home | Current Version | Previous Version | Text Only | Print | Product List | Glossary On
Versions: 1 2 3 4 5 6 7 8 9 10 11 12 13 14 15 16 17 18 19 20 21 22 23 24 25 26 27 28 29 30 31 32 33 34 35 36 37 38 39 40 41 42 43 44 45 46 47 48 49 50
194
ASUS45 KSLC 291310
RWRUT

UTAH REGIONAL WEATHER ROUNDUP
NATIONAL WEATHER SERVICE SALT LAKE CITY UT
700 AM MDT FRI JUL 29 2016

UTZ001>011-023>025-291400-

NORTHERN UTAH

CITY           SKY/WX    TMP DP  RH WIND       PRES   REMARKS
BRIGHAM CITY     N/A     63  41  43 CALM      30.06R
HILL AFB       PTCLDY    69  37  30 E18       30.08R
LOGAN          CLEAR     53  46  77 CALM      30.09R
OGDEN          CLEAR     69  38  32 SE9       30.06R
PROVO AIRPORT  PTCLDY    64  37  36 VRB3      30.09R
SALT LAKE CITY MOCLDY    76  41  28 SE9       30.04R
VERNAL         CLEAR     62  35  36 W6        30.16R
WENDOVER       CLEAR     77  36  22 NW5       30.06R
HEBER CITY     CLEAR     50  41  71 CALM      30.20R

$$

UTZ012>022-026-027-291400-

SOUTHERN/CENTRAL UTAH

CITY           SKY/WX    TMP DP  RH WIND       PRES   REMARKS
BLANDING       CLEAR     68  32  27 N8        30.24R
BRYCE CANYON   PTCLDY    53  37  54 W6        30.34R
CEDAR CITY     PTCLDY    67  39  35 SE3       30.15S
DELTA          CLEAR     68  32  26 E5        30.08R
MILFORD        MOCLDY    69  39  33 SW13      30.10R
MOAB/CYNLANDS  PTCLDY    68  28  22 CALM      30.04R
PRICE          CLEAR     73  30  20 W3        30.17R
ST GEORGE      SUNNY     82  43  24 E6        29.95R

$$

REGIONAL REPORTS     COLORADO/ARIZONA

CITY           SKY/WX    TMP DP  RH WIND       PRES   REMARKS
CRAIG, CO      CLOUDY    48  39  71 CALM      30.26R
GRAND JUNCTION CLOUDY    66  35  31 E6        30.09R
RIFLE          CLOUDY    57  34  41 CALM      30.19R
MONTROSE       CLEAR     66  34  30 SE12      30.20R
CORTEZ         CLOUDY    61  39  44 MISG      30.19R
PAGE, AZ       CLEAR     80  38  22 CALM      30.03R
GRAND CANYON   HAZE      56  48  74 CALM      30.27R VSB 1/4
KINGMAN        MOCLDY    79  46  31 SW3       29.98R
FLAGSTAFF      CLOUDY    61  44  53 CALM      30.29R

$$

REGIONAL REPORTS    NEVADA/IDAHO/WYOMING

CITY           SKY/WX    TMP DP  RH WIND       PRES   REMARKS
LAS VEGAS, NV  MOCLDY    96  46  18 W7        29.82R HX  92
ELY            MOCLDY    59  36  42 S10       30.22R
ELKO           CLEAR     62  34  35 CALM      30.14R
POCATELLO, ID  CLEAR     64  37  36 SW10      30.09R
BURLEY         CLEAR     60  43  53 S5        30.05S
EVANSTON, WY   CLOUDY    59  31  34 E9        30.29R
ROCK SPRINGS   CLEAR     58  46  64 E5        30.29R
KEMMERER         N/A     54  37  54 N5        30.31S

$$




USA.gov is the U.S. government's official web portal to all federal, state and local government web resources and services.